Total_Precipitation_Accumulation
0.00 0.00 0.00 0.00 0.00 0.00 0.00 0.00 0.00 0.00 0.00 0.00 0.00 0.00 0.00 0.00 0.00 0.00 0.00 0.00 0.00 0.00 0.00 0.00 0.00 0.01 0.01 0.02 0.01 0.00 0.00 0.01 0.01 0.02 0.00 0.01 0.04 0.03 0.00 0.00 0.00 0.01 0.05 0.05 0.07 0.03 0.02 0.01 0.00
0.00 0.00 0.00 0.00 0.00 0.00 0.00 0.00 0.00 0.00 0.00 0.00 0.00 0.00 0.00 0.00 0.00 0.00 0.00 0.00 0.00 0.00 0.00 0.00 0.00 0.00 0.00 0.01 0.01 0.00 0.00 0.01 0.01 0.02 0.01 0.02 0.03 0.06 0.00 0.00 0.01 0.07 0.05 0.07 0.05 0.01 0.01 0.00 0.00
0.00 0.00 0.00 0.00 0.00 0.00 0.00 0.00 0.00 0.00 0.00 0.00 0.00 0.00 0.00 0.00 0.01 0.00 0.00 0.00 0.00 0.00 0.00 0.00 0.00 0.00 0.00 0.00 0.00 0.00 0.00 0.00 0.01 0.02 0.06 0.08 0.05 0.07 0.00 0.00 0.05 0.13 0.10 0.02 0.00 0.00 0.00 0.00 0.00
0.00 0.00 0.00 0.00 0.00 0.00 0.00 0.00 0.00 0.00 0.00 0.00 0.00 0.00 0.00 0.00 0.02 0.02 0.00 0.01 0.01 0.00 0.00 0.00 0.00 0.00 0.00 0.00 0.00 0.00 0.00 0.00 0.01 0.02 0.06 0.08 0.15 0.11 0.02 0.02 0.07 0.05 0.02 0.00 0.00 0.00 0.00 0.00 0.00
0.00 0.00 0.00 0.00 0.00 0.00 0.00 0.00 0.00 0.00 0.00 0.00 0.00 0.00 0.00 0.00 0.01 0.02 0.03 0.04 0.03 0.01 0.00 0.00 0.00 0.01 0.00 0.00 0.00 0.00 0.00 0.00 0.01 0.01 0.05 0.09 0.16 0.23 0.10 0.11 0.07 0.00 0.00 0.00 0.00 0.00 0.00 0.00 0.00
0.00 0.00 0.00 0.00 0.00 0.00 0.00 0.00 0.00 0.00 0.00 0.00 0.00 0.00 0.00 0.04 0.07 0.15 0.27 0.31 0.19 0.08 0.03 0.00 0.00 0.03 0.01 0.00 0.00 0.00 0.00 0.01 0.02 0.04 0.10 0.20 0.23 0.21 0.14 0.15 0.03 0.01 0.00 0.00 0.00 0.00 0.00 0.00 0.00
0.00 0.00 0.00 0.00 0.00 0.00 0.00 0.00 0.00 0.00 0.00 0.00 0.00 0.00 0.01 0.06 0.12 0.18 0.29 0.33 0.37 0.34 0.35 0.19 0.08 0.05 0.03 0.04 0.01 0.00 0.00 0.03 0.02 0.05 0.12 0.24 0.26 0.16 0.10 0.16 0.04 0.01 0.01 0.02 0.01 0.00 0.00 0.00 0.00
0.00 0.00 0.00 0.00 0.00 0.00 0.00 0.00 0.00 0.00 0.00 0.00 0.00 0.00 0.00 0.02 0.12 0.16 0.24 0.37 0.45 0.47 0.52 0.53 0.42 0.22 0.10 0.08 0.04 0.00 0.00 0.01 0.01 0.02 0.07 0.11 0.14 0.05 0.05 0.05 0.04 0.01 0.03 0.03 0.00 0.00 0.00 0.00 0.00
0.00 0.00 0.00 0.00 0.00 0.00 0.00 0.00 0.00 0.00 0.00 0.00 0.00 0.00 0.00 0.03 0.11 0.14 0.20 0.19 0.30 0.40 0.37 0.31 0.23 0.33 0.16 0.05 0.06 0.01 0.00 0.00 0.00 0.03 0.07 0.10 0.07 0.02 0.01 0.00 0.00 0.01 0.03 0.02 0.00 0.00 0.00 0.00 0.00
0.00 0.00 0.00 0.00 0.00 0.00 0.00 0.00 0.00 0.00 0.00 0.00 0.00 0.00 0.00 0.03 0.04 0.05 0.11 0.18 0.18 0.29 0.49 0.60 0.41 0.37 0.27 0.15 0.16 0.07 0.04 0.00 0.00 0.07 0.09 0.06 0.07 0.01 0.00 0.00 0.00 0.01 0.02 0.02 0.00 0.00 0.00 0.00 0.00
0.00 0.00 0.00 0.00 0.00 0.00 0.00 0.00 0.00 0.00 0.00 0.00 0.00 0.00 0.00 0.01 0.03 0.03 0.02 0.02 0.05 0.17 0.13 0.27 0.49 0.59 0.25 0.26 0.13 0.07 0.06 0.05 0.01 0.02 0.17 0.13 0.07 0.04 0.00 0.00 0.00 0.00 0.01 0.01 0.01 0.00 0.00 0.00 0.00
0.00 0.00 0.00 0.00 0.00 0.00 0.00 0.00 0.00 0.00 0.00 0.00 0.00 0.00 0.00 0.00 0.00 0.01 0.01 0.01 0.03 0.08 0.08 0.12 0.14 0.33 0.35 0.41 0.44 0.17 0.09 0.05 0.04 0.03 0.05 0.23 0.16 0.12 0.08 0.02 0.01 0.00 0.00 0.01 0.00 0.00 0.00 0.00 0.00
0.00 0.00 0.00 0.00 0.00 0.00 0.00 0.00 0.00 0.00 0.00 0.00 0.00 0.00 0.00 0.00 0.00 0.00 0.00 0.01 0.08 0.03 0.08 0.11 0.12 0.14 0.22 0.29 0.42 0.47 0.19 0.08 0.02 0.04 0.06 0.10 0.27 0.23 0.14 0.09 0.04 0.01 0.00 0.00 0.00 0.00 0.00 0.00 0.00
0.00 0.00 0.00 0.00 0.00 0.00 0.00 0.00 0.00 0.00 0.00 0.00 0.00 0.00 0.00 0.00 0.00 0.00 0.00 0.01 0.09 0.09 0.19 0.11 0.10 0.15 0.19 0.12 0.20 0.60 0.94 0.43 0.07 0.01 0.03 0.04 0.11 0.24 0.33 0.24 0.16 0.05 0.01 0.00 0.00 0.00 0.00 0.00 0.00
0.00 0.00 0.00 0.00 0.00 0.00 0.00 0.00 0.00 0.00 0.00 0.00 0.00 0.00 0.00 0.00 0.00 0.00 0.00 0.00 0.03 0.12 0.08 0.01 0.00 0.01 0.03 0.04 0.04 0.11 0.60 0.91 0.46 0.07 0.03 0.02 0.03 0.06 0.15 0.36 0.32 0.23 0.12 0.03 0.00 0.00 0.00 0.00 0.00
0.00 0.00 0.00 0.00 0.00 0.00 0.00 0.00 0.00 0.00 0.00 0.00 0.00 0.00 0.00 0.00 0.00 0.00 0.00 0.00 0.00 0.02 0.01 0.00 0.00 0.00 0.00 0.00 0.00 0.01 0.08 0.28 0.46 0.21 0.04 0.02 0.01 0.02 0.05 0.05 0.11 0.16 0.20 0.17 0.07 0.01 0.00 0.00 0.00
0.00 0.00 0.00 0.00 0.00 0.00 0.00 0.00 0.00 0.00 0.00 0.00 0.00 0.00 0.00 0.00 0.00 0.00 0.00 0.00 0.00 0.02 0.00 0.00 0.01 0.01 0.02 0.00 0.00 0.02 0.05 0.05 0.16 0.21 0.05 0.01 0.01 0.01 0.03 0.05 0.06 0.07 0.10 0.12 0.15 0.07 0.01 0.00 0.00
0.00 0.00 0.00 0.00 0.00 0.00 0.00 0.00 0.00 0.00 0.00 0.00 0.00 0.00 0.00 0.00 0.00 0.00 0.00 0.01 0.02 0.05 0.05 0.00 0.00 0.00 0.02 0.05 0.04 0.02 0.08 0.08 0.16 0.14 0.09 0.04 0.00 0.01 0.06 0.06 0.05 0.05 0.04 0.03 0.03 0.04 0.02 0.01 0.00
0.00 0.00 0.00 0.00 0.00 0.00 0.00 0.00 0.00 0.00 0.00 0.00 0.00 0.00 0.00 0.00 0.01 0.00 0.00 0.03 0.11 0.12 0.07 0.02 0.01 0.00 0.02 0.07 0.04 0.02 0.03 0.12 0.12 0.17 0.14 0.08 0.09 0.05 0.05 0.09 0.08 0.05 0.02 0.01 0.01 0.02 0.02 0.01 0.01
0.00 0.00 0.00 0.00 0.00 0.01 0.00 0.00 0.00 0.00 0.00 0.00 0.00 0.01 0.01 0.01 0.02 0.01 0.00 0.01 0.03 0.02 0.02 0.00 0.00 0.00 0.02 0.10 0.11 0.06 0.03 0.09 0.19 0.22 0.17 0.18 0.12 0.14 0.10 0.07 0.12 0.11 0.08 0.04 0.03 0.01 0.00 0.00 0.01
0.00 0.01 0.01 0.02 0.02 0.03 0.01 0.00 0.00 0.00 0.00 0.00 0.01 0.04 0.06 0.05 0.01 0.00 0.01 0.03 0.07 0.11 0.15 0.16 0.11 0.15 0.15 0.15 0.19 0.17 0.11 0.14 0.28 0.35 0.37 0.36 0.30 0.28 0.27 0.17 0.08 0.08 0.08 0.05 0.04 0.02 0.02 0.02 0.01
0.01 0.00 0.02 0.06 0.16 0.05 0.02 0.03 0.00 0.00 0.00 0.00 0.00 0.07 0.08 0.10 0.09 0.10 0.09 0.08 0.12 0.15 0.08 0.05 0.12 0.16 0.10 0.07 0.08 0.18 0.16 0.16 0.24 0.40 0.46 0.45 0.45 0.47 0.50 0.48 0.40 0.27 0.13 0.07 0.09 0.18 0.20 0.17 0.21
0.01 0.01 0.05 0.08 0.09 0.05 0.00 0.03 0.00 0.00 0.01 0.01 0.02 0.03 0.09 0.17 0.28 0.27 0.17 0.11 0.08 0.10 0.13 0.08 0.07 0.06 0.20 0.20 0.07 0.19 0.21 0.21 0.26 0.37 0.66 0.49 0.54 0.47 0.50 0.57 0.58 0.54 0.47 0.28 0.29 0.37 0.35 0.30 0.37
0.13 0.16 0.09 0.04 0.05 0.08 0.03 0.01 0.00 0.00 0.02 0.10 0.21 0.10 0.14 0.19 0.30 0.31 0.24 0.19 0.09 0.09 0.09 0.07 0.03 0.02 0.18 0.47 0.46 0.47 0.53 0.39 0.39 0.36 0.64 0.86 0.51 0.45 0.39 0.44 0.61 0.74 0.59 0.44 0.34 0.36 0.36 0.33 0.28
0.05 0.15 0.22 0.12 0.12 0.13 0.12 0.13 0.12 0.00 0.04 0.13 0.30 0.08 0.09 0.15 0.13 0.17 0.15 0.12 0.09 0.08 0.05 0.03 0.02 0.01 0.09 0.23 0.22 0.41 0.68 0.57 0.47 0.46 0.49 0.77 0.78 0.55 0.54 0.39 0.39 0.50 0.65 0.61 0.47 0.34 0.27 0.26 0.25
0.00 0.21 0.39 0.28 0.30 0.24 0.30 0.37 0.16 0.03 0.03 0.11 0.24 0.09 0.04 0.12 0.09 0.06 0.08 0.08 0.06 0.05 0.05 0.03 0.01 0.01 0.05 0.16 0.16 0.19 0.31 0.34 0.46 0.61 0.72 0.68 0.67 0.60 0.61 0.63 0.48 0.39 0.42 0.58 0.63 0.43 0.28 0.23 0.20
0.01 0.07 0.14 0.23 0.25 0.28 0.23 0.28 0.32 0.10 0.02 0.07 0.19 0.12 0.09 0.06 0.08 0.08 0.18 0.23 0.10 0.06 0.05 0.03 0.02 0.02 0.03 0.10 0.18 0.20 0.31 0.38 0.32 0.33 0.45 0.47 0.58 0.68 0.68 0.78 0.87 0.79 0.71 0.64 0.59 0.58 0.43 0.37 0.31
0.00 0.00 0.01 0.07 0.16 0.27 0.19 0.15 0.44 0.36 0.43 0.23 0.24 0.23 0.14 0.22 0.46 0.47 0.62 0.58 0.33 0.19 0.17 0.10 0.08 0.07 0.06 0.07 0.09 0.17 0.23 0.32 0.38 0.33 0.43 0.31 0.32 0.48 0.68 0.63 0.58 0.63 0.65 0.71 0.88 0.81 0.58 0.47 0.43
0.00 0.00 0.00 0.00 0.01 0.05 0.06 0.29 0.58 0.51 0.57 0.49 0.40 0.56 0.58 0.69 0.73 0.68 0.61 0.62 0.47 0.24 0.21 0.13 0.13 0.11 0.09 0.07 0.04 0.05 0.12 0.22 0.15 0.12 0.19 0.23 0.25 0.34 0.56 0.80 0.93 0.87 0.72 0.64 0.61 0.56 0.66 0.77 0.66
0.00 0.00 0.00 0.00 0.00 0.00 0.02 0.19 0.36 0.38 0.48 0.57 0.52 0.65 0.75 0.80 0.80 0.76 0.68 0.64 0.57 0.35 0.23 0.13 0.08 0.02 0.01 0.01 0.00 0.00 0.00 0.01 0.02 0.02 0.01 0.00 0.00 0.01 0.03 0.07 0.16 0.23 0.39 0.53 0.52 0.49 0.46 0.44 0.44